Starlink 3520

operational
NORAD ID: 51741 Int'l Des: 2022-016 Owner: SPXS Country: US Constellation: starlink
LEOCIRCULAR

About Starlink 3520

Description loading...

Live Position

Loading 3D Globe...

Upcoming Passes

Altitude History

Altitude vs Time

uPlot chart will show altitude changes over time

Two-Line Element Set

1 51741U 22016AD 26035.58825645 .00001147 00000-0 90212-4 0 9999
2 51741 53.2182 107.7268 0001281 101.1112 259.0024 15.08818005218561
Epoch: Feb 4, 2026 • Age: 18 hours

Current Status

Altitude 545.5 km
Velocity 7.60 km/s
Sub-Earth Point 53.36°N, 62.32°W
Launch Date Feb 21, 2022
Age 3.9 years
Type internet

Technical Details

Classification Payload
Mass 297.00 kg
Dry Mass 275.00 kg
Total Mass 297.00 kg
Length 0.20 m
Diameter 2.80 m
Span 9.00 m
Shape Box + pan
Manufacturer SPXS
Bus Type Starlink
Phase Status In Orbit
Owner/State SPXS/US

Large Constellations

Loading constellations...